Belspring, VA

7:00 PM EDT on July 26, 2016 (GMT -0400)
New River Valley

Weather History for KPSK - October, 2013

Change the Weather History Date:

Thursday, October 17, 2013

  Actual Average (KBCB) Record (KBCB)
Temperature  
Mean Temperature 60 °F 52 °F  
Max Temperature 66 °F 65 °F 80 °F (1963)
Min Temperature 53 °F 39 °F 26 °F (1970)
Degree Days  
Heating Degree Days 6 13  
Month to date heating degree days 185  
Since 1 July heating degree days 316  
Cooling Degree Days 0 0  
Month to date cooling degree days 1  
Year to date cooling degree days 570  
Growing Degree Days 10 (Base 50)    
Moisture  
Dew Point 58 °F    
Average Humidity 95    
Maximum Humidity 100    
Minimum Humidity 82    
Precipitation  
Precipitation 0.00 in 0.09 in 1.18 in (2006)
Month to date precipitation 1.52  
Year to date precipitation 33.81  
Snow  
Snow 0.00 in - - ()
Month to date snowfall  
Since 1 July snowfall  
Since 1 September snowfall  
Snow Depth -    
Sea Level Pressure  
Sea Level Pressure 29.96 in    
Wind  
Wind Speed 3 mph (WSW)    
Max Wind Speed 18 mph    
Max Gust Speed 22 mph    
Visibility 9 miles    
Events Rain    
T = Trace of Precipitation, MM = Missing Value Source: NWS Daily Summary

Daily Weather History Graph

Daily Weather History Graph

Search for Another Location

Airport or City:

Trip Planner

Search our weather history database for the weather conditions in past years. The results will help you decide how hot, cold, wet, or windy it might be!

Date:

Astronomy

Oct. 17, 2013 Rise Set
Actual Time 7:32 AM EDT 6:42 PM EDT
Civil Twilight 7:06 AM EDT 7:09 PM EDT
Nautical Twilight 6:36 AM EDT 7:39 PM EDT
Astronomical Twilight 6:05 AM EDT 8:09 PM EDT
Moon 5:55 PM EDT (10/17) 6:04 AM EDT (10/17)
Length of Visible Light 12h 02m
Length of Day
11h 10m
Waxing Gibbous, 98% of the Moon is Illuminated
Oct 17
Waxing Gibbous
Oct 18
Full
Oct 26
Last Quarter
Nov 3
New
Nov 10
First Quarter

Hourly Weather History & Observations

Time (EDT) Temp. Dew Point Humidity Pressure Visibility Wind Dir Wind Speed Gust Speed Precip Events Conditions
12:15 AM 57.2 °F 57.2 °F 100% 30.02 in 10.0 mi SW 3.5 mph - N/A   Scattered Clouds
12:35 AM 59.0 °F 57.2 °F 94% 30.02 in 10.0 mi SW 3.5 mph - N/A   Scattered Clouds
12:55 AM 59.0 °F 57.2 °F 94% 30.02 in 10.0 mi Calm Calm - N/A Rain Light Rain
1:15 AM 59.0 °F 57.2 °F 94% 30.01 in 10.0 mi SW 3.5 mph - N/A   Mostly Cloudy
1:35 AM 59.0 °F 57.2 °F 94% 30.01 in 10.0 mi SW 3.5 mph - N/A   Scattered Clouds
1:55 AM 57.2 °F 57.2 °F 100% 30.01 in 10.0 mi SW 3.5 mph - N/A   Clear
2:15 AM 57.2 °F 57.2 °F 100% 30.00 in 10.0 mi WSW 3.5 mph - N/A   Clear
2:35 AM 57.2 °F 57.2 °F 100% 30.00 in 10.0 mi SW 3.5 mph - N/A   Clear
2:55 AM 57.2 °F 57.2 °F 100% 30.00 in 10.0 mi Calm Calm - N/A   Clear
3:15 AM 57.2 °F 57.2 °F 100% 29.99 in 10.0 mi Calm Calm - N/A   Scattered Clouds
3:35 AM 57.2 °F 57.2 °F 100% 29.98 in 7.0 mi Calm Calm - N/A   Scattered Clouds
3:55 AM 57.2 °F 57.2 °F 100% 29.99 in 7.0 mi Calm Calm - N/A   Mostly Cloudy
4:15 AM 57.2 °F 57.2 °F 100% 29.98 in 7.0 mi Calm Calm - N/A   Overcast
4:35 AM 57.2 °F 57.2 °F 100% 29.98 in 7.0 mi Calm Calm - N/A   Mostly Cloudy
4:55 AM 57.2 °F 57.2 °F 100% 29.98 in 7.0 mi SW 3.5 mph - N/A   Mostly Cloudy
5:15 AM 57.2 °F 57.2 °F 100% 29.97 in 7.0 mi Calm Calm - N/A   Scattered Clouds
5:35 AM 57.2 °F 57.2 °F 100% 29.98 in 7.0 mi Calm Calm - N/A   Mostly Cloudy
5:55 AM 57.2 °F 57.2 °F 100% 29.98 in 7.0 mi Calm Calm - N/A   Mostly Cloudy
6:15 AM 55.4 °F 55.4 °F 100% 29.98 in 7.0 mi Calm Calm - N/A   Mostly Cloudy
6:35 AM 57.2 °F 57.2 °F 100% 29.99 in 7.0 mi Calm Calm - N/A   Mostly Cloudy
6:55 AM 57.2 °F 57.2 °F 100% 29.98 in 7.0 mi Calm Calm - N/A   Overcast
7:15 AM 57.2 °F 57.2 °F 100% 29.97 in 7.0 mi Calm Calm - N/A   Mostly Cloudy
7:35 AM 57.2 °F 57.2 °F 100% 29.97 in 5.0 mi Calm Calm - N/A   Mostly Cloudy
7:55 AM 57.2 °F 57.2 °F 100% 29.98 in 5.0 mi Calm Calm - N/A   Overcast
8:15 AM 57.2 °F 57.2 °F 100% 29.98 in 7.0 mi Calm Calm - N/A Rain Rain
8:35 AM 59.0 °F 59.0 °F 100% 29.99 in 5.0 mi Calm Calm - N/A Rain Light Rain
8:55 AM 59.0 °F 59.0 °F 100% 29.99 in 4.0 mi Calm Calm - N/A Rain Light Rain
9:15 AM 59.0 °F 59.0 °F 100% 29.98 in 5.0 mi Calm Calm - N/A   Overcast
9:35 AM 59.0 °F 59.0 °F 100% 29.98 in 4.0 mi Calm Calm - N/A Rain Rain
9:55 AM 59.0 °F 59.0 °F 100% 29.98 in 10.0 mi Calm Calm - N/A   Overcast
10:15 AM 60.8 °F 59.0 °F 94% 29.97 in 10.0 mi Calm Calm - N/A   Overcast
10:35 AM 60.8 °F 60.8 °F 100% 29.97 in 10.0 mi Calm Calm - N/A   Mostly Cloudy
10:55 AM 60.8 °F 60.8 °F 100% 29.97 in 10.0 mi Calm Calm - N/A   Mostly Cloudy
11:15 AM 60.8 °F 60.8 °F 100% 29.97 in 10.0 mi Calm Calm - N/A   Mostly Cloudy
11:35 AM 60.8 °F 60.8 °F 100% 29.96 in 7.0 mi Calm Calm - N/A Rain Rain
11:55 AM 62.6 °F 60.8 °F 94% 29.96 in 10.0 mi Calm Calm - N/A Rain Light Rain
12:15 PM 62.6 °F 60.8 °F 94% 29.96 in 10.0 mi Calm Calm - N/A   Overcast
12:35 PM 62.6 °F 60.8 °F 94% 29.94 in 10.0 mi Calm Calm - N/A   Overcast
12:55 PM 64.4 °F 60.8 °F 88% 29.94 in 10.0 mi Calm Calm - N/A   Overcast
1:15 PM 64.4 °F 60.8 °F 88% 29.92 in 10.0 mi Calm Calm - N/A   Mostly Cloudy
1:35 PM 66.2 °F 60.8 °F 83% 29.91 in 10.0 mi South 5.8 mph - N/A   Mostly Cloudy
1:55 PM 66.2 °F 60.8 °F 83% 29.89 in 10.0 mi South 6.9 mph - N/A   Overcast
2:15 PM 64.4 °F 60.8 °F 88% 29.89 in 10.0 mi South 3.5 mph - N/A   Overcast
2:35 PM 66.2 °F 62.6 °F 88% 29.89 in 10.0 mi South 5.8 mph - N/A   Overcast
2:55 PM 64.4 °F 62.6 °F 94% 29.89 in 10.0 mi SSW 6.9 mph - N/A   Overcast
3:15 PM 64.4 °F 62.6 °F 94% 29.87 in 10.0 mi SSW 4.6 mph - N/A   Light Drizzle
3:35 PM 66.2 °F 64.4 °F 94% 29.88 in 10.0 mi SSW 4.6 mph - N/A   Overcast
3:55 PM 66.2 °F 62.6 °F 88% 29.87 in 10.0 mi SW 6.9 mph - N/A   Overcast
4:15 PM 66.2 °F 62.6 °F 88% 29.87 in 7.0 mi South 5.8 mph - N/A Rain Rain
4:35 PM 64.4 °F 62.6 °F 94% 29.87 in 7.0 mi SSW 6.9 mph - N/A Rain Light Rain
4:55 PM 64.4 °F 62.6 °F 94% 29.87 in 10.0 mi SSW 6.9 mph - N/A   Overcast
5:15 PM 64.4 °F 62.6 °F 94% 29.87 in 7.0 mi SSW 8.1 mph - N/A Rain Light Rain
5:35 PM 64.4 °F 64.4 °F 100% 29.87 in 10.0 mi SW 10.4 mph - N/A   Mostly Cloudy
5:55 PM 64.4 °F 62.6 °F 94% 29.87 in 10.0 mi SW 8.1 mph - N/A   Clear
6:15 PM 64.4 °F 62.6 °F 94% 29.88 in 10.0 mi SW 6.9 mph - N/A   Scattered Clouds
6:35 PM 62.6 °F 62.6 °F 100% 29.88 in 10.0 mi SW 4.6 mph - N/A   Mostly Cloudy
6:55 PM 62.6 °F 60.8 °F 94% 29.90 in 10.0 mi WNW 18.4 mph 21.9 mph N/A   Overcast
7:15 PM 60.8 °F 57.2 °F 88% 29.91 in 10.0 mi West 10.4 mph - N/A   Scattered Clouds
7:35 PM 59.0 °F 55.4 °F 88% 29.93 in 10.0 mi WNW 12.7 mph 17.3 mph N/A   Clear
7:55 PM 57.2 °F 55.4 °F 94% 29.93 in 10.0 mi WNW 10.4 mph - N/A   Clear
8:15 PM 57.2 °F 55.4 °F 94% 29.94 in 10.0 mi West 8.1 mph - N/A   Scattered Clouds
8:35 PM 57.2 °F 55.4 °F 94% 29.95 in 10.0 mi WNW 10.4 mph - N/A   Mostly Cloudy
8:55 PM 57.2 °F 53.6 °F 88% 29.96 in 10.0 mi WNW 10.4 mph - N/A   Overcast
9:15 PM 57.2 °F 53.6 °F 88% 29.97 in 10.0 mi WNW 6.9 mph - N/A   Overcast
9:35 PM 57.2 °F 53.6 °F 88% 29.98 in 10.0 mi WNW 11.5 mph - N/A   Overcast
9:55 PM 55.4 °F 51.8 °F 88% 29.98 in 10.0 mi WNW 12.7 mph - N/A   Overcast
10:15 PM 55.4 °F 51.8 °F 88% 29.99 in 10.0 mi WNW 11.5 mph 18.4 mph N/A   Overcast
10:35 PM 55.4 °F 50.0 °F 82% 30.00 in 10.0 mi WNW 11.5 mph - N/A   Overcast
10:55 PM 55.4 °F 50.0 °F 82% 30.00 in 10.0 mi WNW 6.9 mph - N/A   Overcast
11:15 PM 53.6 °F 50.0 °F 88% 30.01 in 10.0 mi WNW 8.1 mph - N/A   Overcast
11:35 PM 53.6 °F 48.2 °F 82% 30.01 in 10.0 mi WNW 8.1 mph - N/A   Overcast
11:55 PM 53.6 °F 48.2 °F 82% 30.01 in 10.0 mi NW 5.8 mph - N/A   Overcast